• In Germany
  • List of Countries
  • For 7 days
  • Water Temperature
  • Satellite Maps
  • Weather Map
  • Weather Widgets
  • user-avatar
    Login

    Hourly Weather Al-Chums

    Today, 24 September, Sunday

    Time Temperature Precipitation Wind Pressure Humidity
    00:00 +22°C° 0 mm 1 mps 718 mmHg 68%
    01:00 +21°C° 0 mm 1 mps 718 mmHg 69%
    02:00 +21°C° 0 mm 1 mps 718 mmHg 74%
    03:00 +21°C° 0 mm 1 mps 718 mmHg 75%
    04:00 +18°C° 0 mm 0 mps 718 mmHg 76%
    05:00 +18°C° 0 mm 0 mps 718 mmHg 77%
    06:00 +22°C° 0 mm 1 mps 718 mmHg 71%
    07:00 +23°C° 0 mm 1 mps 718 mmHg 64%
    08:00 +24°C° 0 mm 1 mps 718 mmHg 57%
    09:00 +26°C° 0 mm 1 mps 718 mmHg 50%
    10:00 +28°C° 0 mm 2 mps 718 mmHg 43%
    11:00 +30°C° 0 mm 2 mps 718 mmHg 36%
    12:00 +30°C° 0 mm 2 mps 718 mmHg 34%
    13:00 +31°C° 0 mm 2 mps 718 mmHg 31%
    14:00 +32°C° 0 mm 2 mps 718 mmHg 28%
    15:00 +32°C° 0 mm 2 mps 717 mmHg 30%
    16:00 +31°C° 0 mm 3 mps 717 mmHg 31%
    17:00 +31°C° 0 mm 3 mps 717 mmHg 32%
    18:00 +30°C° 0 mm 2 mps 717 mmHg 37%
    19:00 +28°C° 0 mm 2 mps 717 mmHg 41%
    20:00 +27°C° 0 mm 2 mps 717 mmHg 45%
    21:00 +26°C° 0 mm 2 mps 717 mmHg 48%
    22:00 +26°C° 0 mm 2 mps 717 mmHg 51%
    23:00 +25°C° 0 mm 2 mps 717 mmHg 53%

    Tomorrow, 25 September, Monday

    Time Temperature Precipitation Wind Pressure Humidity
    00:00 +24°C° 0 mm 2 mps 717 mmHg 55%
    01:00 +24°C° 0 mm 2 mps 717 mmHg 57%
    02:00 +23°C° 0 mm 1 mps 717 mmHg 59%
    03:00 +23°C° 0 mm 1 mps 717 mmHg 60%
    04:00 +23°C° 0 mm 1 mps 717 mmHg 61%
    05:00 +22°C° 0 mm 1 mps 717 mmHg 63%
    06:00 +24°C° 0 mm 1 mps 717 mmHg 57%
    07:00 +25°C° 0 mm 1 mps 718 mmHg 52%
    08:00 +26°C° 0 mm 1 mps 718 mmHg 46%
    09:00 +28°C° 0 mm 1 mps 718 mmHg 41%
    10:00 +29°C° 0 mm 1 mps 718 mmHg 36%
    11:00 +31°C° 0 mm 1 mps 718 mmHg 31%
    12:00 +31°C° 0 mm 1 mps 718 mmHg 30%
    13:00 +32°C° 0 mm 2 mps 717 mmHg 29%
    14:00 +32°C° 0 mm 2 mps 717 mmHg 29%
    15:00 +32°C° 0 mm 2 mps 717 mmHg 31%
    16:00 +31°C° 0 mm 3 mps 717 mmHg 34%
    17:00 +31°C° 0 mm 3 mps 717 mmHg 37%
    18:00 +29°C° 0 mm 3 mps 717 mmHg 45%
    19:00 +28°C° 0 mm 3 mps 717 mmHg 52%
    20:00 +26°C° 0 mm 3 mps 717 mmHg 60%
    21:00 +26°C° 0 mm 3 mps 717 mmHg 63%
    22:00 +25°C° 0 mm 3 mps 717 mmHg 65%
    23:00 +25°C° 0 mm 2 mps 717 mmHg 67%

    Day after tomorrow, 26 September, Tuesday

    Time Temperature Precipitation Wind Pressure Humidity
    00:00 +24°C° 0 mm 2 mps 717 mmHg 69%
    01:00 +24°C° 0 mm 2 mps 717 mmHg 70%
    02:00 +24°C° 0 mm 2 mps 717 mmHg 72%
    03:00 +23°C° 0 mm 2 mps 716 mmHg 74%
    04:00 +23°C° 0 mm 2 mps 716 mmHg 76%
    05:00 +23°C° 0 mm 2 mps 716 mmHg 78%
    06:00 +23°C° 0 mm 2 mps 717 mmHg 72%
    07:00 +24°C° 0 mm 2 mps 717 mmHg 67%
    08:00 +25°C° 0 mm 3 mps 718 mmHg 62%
    09:00 +27°C° 0 mm 3 mps 718 mmHg 54%
    10:00 +28°C° 0 mm 4 mps 718 mmHg 46%
    11:00 +30°C° 0 mm 4 mps 718 mmHg 39%
    12:00 +30°C° 0 mm 5 mps 718 mmHg 39%
    13:00 +30°C° 0 mm 5 mps 717 mmHg 39%
    14:00 +32°C° 0 mm 6 mps 717 mmHg 39%
    15:00 +29°C° 0 mm 6 mps 717 mmHg 45%
    16:00 +28°C° 0 mm 6 mps 717 mmHg 52%
    17:00 +27°C° 0 mm 6 mps 717 mmHg 59%
    18:00 +26°C° 0 mm 6 mps 717 mmHg 63%
    19:00 +25°C° 0 mm 5 mps 717 mmHg 67%
    20:00 +23°C° 0 mm 4 mps 718 mmHg 71%
    21:00 +23°C° 0 mm 4 mps 718 mmHg 72%
    22:00 +22°C° 0 mm 4 mps 718 mmHg 74%
    23:00 +22°C° 0 mm 4 mps 718 mmHg 75%

    27 September, Wednesday

    Time Temperature Precipitation Wind Pressure Humidity
    00:00 +21°C° 0 mm 3 mps 718 mmHg 76%
    01:00 +21°C° 0 mm 3 mps 718 mmHg 77%
    02:00 +21°C° 0 mm 3 mps 718 mmHg 79%
    03:00 +20°C° 0 mm 3 mps 718 mmHg 79%
    04:00 +20°C° 0 mm 3 mps 718 mmHg 79%
    05:00 +20°C° 0 mm 3 mps 718 mmHg 79%
    06:00 +21°C° 0 mm 3 mps 718 mmHg 70%
    07:00 +23°C° 0 mm 4 mps 719 mmHg 61%
    08:00 +25°C° 0 mm 4 mps 719 mmHg 52%
    09:00 +26°C° 0 mm 4 mps 719 mmHg 46%
    10:00 +28°C° 0 mm 5 mps 719 mmHg 40%
    11:00 +29°C° 0 mm 5 mps 719 mmHg 34%
    12:00 +29°C° 0 mm 6 mps 719 mmHg 35%
    13:00 +30°C° 0 mm 6 mps 718 mmHg 35%
    14:00 +30°C° 0 mm 7 mps 718 mmHg 35%
    15:00 +29°C° 0 mm 6 mps 718 mmHg 42%
    16:00 +27°C° 0 mm 6 mps 718 mmHg 48%
    17:00 +26°C° 0 mm 6 mps 718 mmHg 55%
    18:00 +25°C° 0 mm 5 mps 718 mmHg 61%
    19:00 +23°C° 0 mm 5 mps 718 mmHg 67%
    20:00 +22°C° 0 mm 4 mps 718 mmHg 73%
    21:00 +22°C° 0 mm 4 mps 718 mmHg 75%
    22:00 +22°C° 0 mm 3 mps 718 mmHg 77%
    23:00 +21°C° 0 mm 3 mps 718 mmHg 78%

    28 September, Thursday

    Time Temperature Precipitation Wind Pressure Humidity
    00:00 +21°C° 0 mm 3 mps 718 mmHg 80%
    01:00 +20°C° 0 mm 2 mps 718 mmHg 81%
    02:00 +20°C° 0 mm 2 mps 717 mmHg 83%
    03:00 +20°C° 0 mm 2 mps 717 mmHg 83%
    04:00 +19°C° 0 mm 2 mps 717 mmHg 84%
    05:00 +19°C° 0 mm 2 mps 717 mmHg 84%
    06:00 +20°C° 0 mm 2 mps 718 mmHg 76%
    07:00 +22°C° 0 mm 3 mps 718 mmHg 67%
    08:00 +24°C° 0 mm 3 mps 719 mmHg 58%
    09:00 +26°C° 0 mm 3 mps 719 mmHg 51%
    10:00 +27°C° 0 mm 3 mps 719 mmHg 44%
    11:00 +28°C° 0 mm 4 mps 719 mmHg 37%
    12:00 +29°C° 0 mm 4 mps 718 mmHg 37%
    13:00 +29°C° 0 mm 5 mps 718 mmHg 37%
    14:00 +29°C° 0 mm 5 mps 717 mmHg 37%
    15:00 +28°C° 0 mm 5 mps 717 mmHg 43%
    16:00 +27°C° 0 mm 5 mps 717 mmHg 50%
    17:00 +26°C° 0 mm 5 mps 717 mmHg 56%
    18:00 +25°C° 0 mm 4 mps 717 mmHg 61%
    19:00 +23°C° 0 mm 4 mps 717 mmHg 66%
    20:00 +22°C° 0 mm 3 mps 718 mmHg 72%
    21:00 +22°C° 0 mm 3 mps 718 mmHg 74%
    22:00 +22°C° 0 mm 3 mps 718 mmHg 75%
    23:00 +21°C° 0 mm 3 mps 718 mmHg 77%

    29 September, Friday

    Time Temperature Precipitation Wind Pressure Humidity
    00:00 +21°C° 0 mm 2 mps 717 mmHg 79%
    01:00 +21°C° 0 mm 2 mps 717 mmHg 81%
    02:00 +20°C° 0 mm 2 mps 717 mmHg 83%
    03:00 +21°C° 0 mm 1 mps 717 mmHg 84%
    04:00 +20°C° 0 mm 1 mps 717 mmHg 85%
    05:00 +20°C° 0 mm 1 mps 717 mmHg 86%
    06:00 +20°C° 0 mm 2 mps 717 mmHg 78%
    07:00 +21°C° 0 mm 2 mps 717 mmHg 70%
    08:00 +24°C° 0 mm 2 mps 718 mmHg 61%
    09:00 +25°C° 0 mm 2 mps 718 mmHg 54%
    10:00 +26°C° 0 mm 3 mps 717 mmHg 46%
    11:00 +28°C° 0 mm 3 mps 717 mmHg 39%
    12:00 +28°C° 0 mm 3 mps 717 mmHg 38%
    13:00 +29°C° 0 mm 4 mps 716 mmHg 37%
    14:00 +29°C° 0 mm 5 mps 716 mmHg 37%
    15:00 +28°C° 0 mm 5 mps 716 mmHg 44%
    16:00 +27°C° 0 mm 6 mps 716 mmHg 51%
    17:00 +24°C° 0 mm 6 mps 716 mmHg 58%
    18:00 +24°C° 0 mm 6 mps 716 mmHg 62%
    19:00 +23°C° 0 mm 5 mps 716 mmHg 67%
    20:00 +22°C° 0 mm 4 mps 717 mmHg 71%
    21:00 +22°C° 0 mm 4 mps 717 mmHg 72%
    22:00 +21°C° 0 mm 4 mps 717 mmHg 73%
    23:00 +21°C° 0 mm 4 mps 717 mmHg 74%
    Show more